Madison, SD

11:05 PM CST on December 06, 2019 (GMT -0600)
Madison Municipal

Weather History for KMDS - November, 2019

Change the Weather History Date:

Monday, November 18, 2019

  Actual Average Record
Temperature  
Mean Temperature 39 °F -  
Max Temperature 46 °F 38 °F 57 °F (2012)
Min Temperature 32 °F 21 °F 3 °F (2014)
Degree Days  
Heating Degree Days 26    
Moisture  
Dew Point 38 °F    
Average Humidity 100    
Maximum Humidity 100    
Minimum Humidity 93    
Precipitation  
Precipitation 0.15 in - - ()
Sea Level Pressure  
Sea Level Pressure 29.68 in    
Wind  
Wind Speed 10 mph ()    
Max Wind Speed 17 mph    
Max Gust Speed 25 mph    
Visibility 9.6 miles    
Events Rain    
Averages and records for this station are not official NWS values.
T = Trace of Precipitation, MM = Missing Value Source: Averaged Metar Reports

Daily Weather History Graph

Daily Weather History Graph

Search for Another Location

Airport or City:

Astronomy

Nov. 18, 2019 Rise Set
Actual Time 7:27 AM CST 4:59 PM CST
Civil Twilight 6:55 AM CST 5:30 PM CST
Nautical Twilight 6:20 AM CST 6:06 PM CST
Astronomical Twilight 5:46 AM CST 6:40 PM CST
Moon 10:45 PM CST (11/18) 1:00 PM CST (11/18)
Length of Visible Light 10h 35m
Length of Day
9h 32m
Waning Gibbous, 63% of the Moon is Illuminated
Nov 18
Waning Gibbous
Nov 19
Last Quarter
Nov 26
New
Dec 4
First Quarter
Dec 11
Full

Hourly Weather History & Observations

Time (CST) Temp. Windchill Dew Point Humidity Pressure Visibility Wind Dir Wind Speed Gust Speed Precip Events Conditions
12:35 AM 32.0 °F 24.8 °F 32.0 °F 100% 29.76 in 10.0 mi South 8.1 mph - N/A   Clear
12:55 AM 32.0 °F 23.6 °F 32.0 °F 100% 29.75 in 10.0 mi South 10.4 mph - N/A   Partly Cloudy
1:15 AM 32.0 °F 24.2 °F 32.0 °F 100% 29.75 in 10.0 mi South 9.2 mph - N/A   Mostly Cloudy
1:35 AM 32.0 °F 24.2 °F 32.0 °F 100% 29.74 in 10.0 mi South 9.2 mph - N/A   Overcast
1:55 AM 32.0 °F 23.6 °F 32.0 °F 100% 29.73 in 10.0 mi South 10.4 mph - N/A   Overcast
2:15 AM 32.0 °F 23.0 °F 32.0 °F 100% 29.73 in 10.0 mi South 11.5 mph - N/A   Overcast
2:35 AM 32.0 °F 22.5 °F 32.0 °F 100% 29.73 in 10.0 mi South 12.7 mph - N/A   Overcast
3:15 AM 32.0 °F 24.2 °F 32.0 °F 100% 29.72 in 10.0 mi South 9.2 mph - N/A   Overcast
3:35 AM 32.0 °F 23.6 °F 32.0 °F 100% 29.71 in 10.0 mi South 10.4 mph - N/A   Overcast
3:55 AM 32.0 °F 23.6 °F 32.0 °F 100% 29.70 in 10.0 mi South 10.4 mph - N/A   Overcast
4:15 AM 32.0 °F 23.0 °F 32.0 °F 100% 29.68 in 10.0 mi South 11.5 mph - N/A   Overcast
4:35 AM 32.0 °F 24.2 °F 32.0 °F 100% 29.68 in 10.0 mi South 9.2 mph - N/A   Mostly Cloudy
5:15 AM 32.0 °F 24.2 °F 32.0 °F 100% 29.68 in 10.0 mi South 9.2 mph - N/A   Overcast
5:35 AM 32.0 °F 24.8 °F 32.0 °F 100% 29.67 in 10.0 mi South 8.1 mph - N/A   Overcast
5:55 AM 32.0 °F 23.6 °F 32.0 °F 100% 29.66 in 10.0 mi South 10.4 mph - N/A   Overcast
6:15 AM 32.0 °F 23.0 °F 32.0 °F 100% 29.65 in 10.0 mi South 11.5 mph - N/A   Mostly Cloudy
6:35 AM 32.0 °F 22.5 °F 32.0 °F 100% 29.65 in 10.0 mi South 12.7 mph - N/A   Overcast
7:35 AM 32.0 °F 25.6 °F 32.0 °F 100% 29.66 in 10.0 mi SSW 6.9 mph - N/A   Overcast
7:55 AM 32.0 °F 26.4 °F 32.0 °F 100% 29.66 in 10.0 mi South 5.8 mph - N/A   Overcast
8:15 AM 32.0 °F 26.4 °F 32.0 °F 100% 29.66 in 10.0 mi South 5.8 mph - N/A   Overcast
8:35 AM 32.0 °F 26.4 °F 32.0 °F 100% 29.66 in 10.0 mi South 5.8 mph - N/A   Overcast
8:55 AM 33.8 °F 27.0 °F 33.8 °F 100% 29.64 in 10.0 mi South 8.1 mph - N/A   Mostly Cloudy
9:15 AM 35.6 °F 30.7 °F 35.6 °F 100% 29.64 in 10.0 mi South 5.8 mph - N/A   Mostly Cloudy
9:35 AM 37.4 °F 32.1 °F 37.4 °F 100% 29.63 in 10.0 mi SW 6.9 mph - N/A   Scattered Clouds
9:55 AM 39.2 °F 32.5 °F 39.2 °F 100% 29.63 in 10.0 mi SW 10.4 mph - N/A   Mostly Cloudy
10:15 AM 41.0 °F 34.7 °F 41.0 °F 100% 29.63 in 10.0 mi WSW 10.4 mph - N/A   Mostly Cloudy
10:35 AM 41.0 °F 34.7 °F 41.0 °F 100% 29.62 in 10.0 mi WSW 10.4 mph - N/A   Partly Cloudy
10:55 AM 44.6 °F 39.2 °F 42.8 °F 93% 29.61 in 10.0 mi WSW 10.4 mph - N/A   Scattered Clouds
11:15 AM 44.6 °F 39.7 °F 44.6 °F 100% 29.61 in 10.0 mi West 9.2 mph - N/A   Scattered Clouds
11:35 AM 46.4 °F 42.4 °F 44.6 °F 93% 29.61 in 10.0 mi West 8.1 mph - N/A   Scattered Clouds
11:55 AM 46.4 °F 41.9 °F 46.4 °F 100% 29.60 in 10.0 mi West 9.2 mph - N/A   Mostly Cloudy
12:35 PM 46.4 °F 40.7 °F 46.4 °F 100% 29.60 in 10.0 mi WNW 12.7 mph 17.3 mph 0.01 in Rain Light Rain
12:55 PM 46.4 °F 40.4 °F 46.4 °F 100% 29.61 in 10.0 mi NW 13.8 mph 19.6 mph 0.01 in   Scattered Clouds
1:15 PM 46.4 °F 40.4 °F 46.4 °F 100% 29.61 in 10.0 mi NW 13.8 mph 25.3 mph N/A   Mostly Cloudy
1:35 PM 46.4 °F 40.1 °F 46.4 °F 100% 29.60 in 10.0 mi NW 15.0 mph 20.7 mph N/A   Mostly Cloudy
1:55 PM 44.6 °F 37.4 °F 44.6 °F 100% 29.61 in 10.0 mi NW 16.1 mph 20.7 mph N/A Rain Light Rain
2:15 PM 44.6 °F 38.1 °F 44.6 °F 100% 29.62 in 10.0 mi NW 13.8 mph 20.7 mph 0.02 in Rain Light Rain
2:35 PM 44.6 °F 38.4 °F 44.6 °F 100% 29.62 in 10.0 mi NW 12.7 mph 20.7 mph 0.03 in Rain Light Rain
2:55 PM 44.6 °F 37.8 °F 44.6 °F 100% 29.62 in 10.0 mi NW 15.0 mph 21.9 mph 0.05 in Rain Light Rain
3:15 PM 44.6 °F 37.2 °F 44.6 °F 100% 29.63 in 10.0 mi NW 17.3 mph 21.9 mph N/A Rain Light Rain
3:55 PM 44.6 °F 37.8 °F 44.6 °F 100% 29.66 in 3.0 mi NW 15.0 mph 20.7 mph 0.03 in Rain Light Rain
4:15 PM 44.6 °F 37.2 °F 44.6 °F 100% 29.66 in 1.8 mi NNW 17.3 mph - 0.02 in   Mostly Cloudy
4:35 PM 42.8 °F 35.4 °F 42.8 °F 100% 29.67 in 5.0 mi NNW 15.0 mph - 0.04 in Rain Light Rain
4:55 PM 42.8 °F 35.4 °F 42.8 °F 100% 29.68 in 2.5 mi NNW 15.0 mph 18.4 mph 0.06 in   Scattered Clouds
5:15 PM 41.0 °F 34.3 °F 41.0 °F 100% 29.68 in 10.0 mi NW 11.5 mph - N/A Rain Light Rain
5:35 PM 41.0 °F 33.5 °F 41.0 °F 100% 29.69 in 10.0 mi NW 13.8 mph - N/A Rain Light Rain
5:55 PM 42.8 °F 35.4 °F 42.8 °F 100% 29.70 in 10.0 mi NW 15.0 mph 20.7 mph N/A   Overcast
6:15 PM 41.0 °F 32.8 °F 41.0 °F 100% 29.71 in 10.0 mi NNW 16.1 mph - N/A   Overcast
6:35 PM 41.0 °F 33.9 °F 41.0 °F 100% 29.72 in 10.0 mi NNW 12.7 mph 19.6 mph N/A   Mostly Cloudy
6:55 PM 39.2 °F 31.6 °F 39.2 °F 100% 29.72 in 10.0 mi NNW 12.7 mph - N/A   Scattered Clouds
7:15 PM 39.2 °F 31.6 °F 39.2 °F 100% 29.73 in 10.0 mi NNW 12.7 mph - N/A   Partly Cloudy
7:35 PM 39.2 °F 32.5 °F 39.2 °F 100% 29.74 in 10.0 mi NW 10.4 mph - N/A   Clear
7:55 PM 39.2 °F 32.5 °F 39.2 °F 100% 29.74 in 10.0 mi NW 10.4 mph - N/A   Scattered Clouds
8:15 PM 39.2 °F 32.5 °F 39.2 °F 100% 29.75 in 10.0 mi NW 10.4 mph - N/A   Partly Cloudy
8:35 PM 37.4 °F 29.8 °F 37.4 °F 100% 29.75 in 10.0 mi NW 11.5 mph - N/A   Partly Cloudy
8:55 PM 37.4 °F 30.3 °F 37.4 °F 100% 29.75 in 10.0 mi NW 10.4 mph - N/A   Partly Cloudy
9:15 PM 37.4 °F 30.3 °F 37.4 °F 100% 29.74 in 10.0 mi NW 10.4 mph - N/A   Clear
9:35 PM 37.4 °F 30.8 °F 37.4 °F 100% 29.74 in 10.0 mi WNW 9.2 mph - N/A   Clear
9:55 PM 37.4 °F 30.8 °F 37.4 °F 100% 29.75 in 10.0 mi WNW 9.2 mph - N/A   Clear
10:15 PM 37.4 °F 30.3 °F 37.4 °F 100% 29.75 in 10.0 mi WNW 10.4 mph - N/A   Clear
10:35 PM 37.4 °F 30.8 °F 37.4 °F 100% 29.75 in 10.0 mi WNW 9.2 mph - N/A   Clear
10:55 PM 37.4 °F 30.8 °F 37.4 °F 100% 29.74 in 10.0 mi West 9.2 mph - N/A   Clear
11:15 PM 35.6 °F 28.6 °F 35.6 °F 100% 29.74 in 10.0 mi WNW 9.2 mph - N/A   Clear
11:35 PM 35.6 °F 27.1 °F 35.6 °F 100% 29.74 in 10.0 mi WNW 12.7 mph - N/A   Clear
11:55 PM 37.4 °F 28.9 °F 37.4 °F 100% 29.74 in 10.0 mi WNW 13.8 mph - N/A   Clear